Content
SEND FEEDBACK

Daily
Averages
Monthly
Summary
United States of America

HAZELTON, WYOMING


Home > North America > United States > Wyoming
Elevation: 4780 feet     Latitude: 44 04N     Longitude: 106 40W

WEATHER
 
SELECT A DAY
Number of Records: 165,797;   Date Range: 7/30/98 - 8/13/14
 
SHARE

PRINT THIS DATA

[ ← Previous Day ]
WEATHER ALMANAC - JANUARY 31, 2013
[ Next Day → ]
[ °C ]   °F
Weather ElementAverageHighLow
Temperature14.3 °F34 °F (11:53 pm)3.2 °F (8:15 am)
Dewpoint9.6 °F21.9 °F (11:53 pm)-0.4 °F (8:24 am)
Humidity82.3 %93 % (1:16 am)59 % (8:53 pm)
Barometer30.05 in30.28 in (8:53 am)29.87 in (1:00 am)
Wind Speed10.9 mph24.2 mph (1:24 am)
Wind Gust36.8 mph (1:44 am)
Weather ElementAverage
Visibility3.5 mi
Wind DirectionSSW (192.5 °)

Weather ElementTotal
Precipitation0.20 in
Heating Degree Days46.4 (Base 65)
Averaged from 71 records on January 31, 2013
WEATHER CONDITIONS BREAKOUT
WIND DIRECTION BREAKOUT
WEATHER BY HOUR - JANUARY 31, 2013
[ °C ]   °F
Local TimeTemperatureDewpointHumidityBarometerVisibilityWind DirectionWind SpeedGust SpeedPrecipitationEventsConditions
12:53 AM21.0 °F18.0 °F88 %29.98 in3.0 miNorth (350°)21.9 mph35.7 mph0.00 inSnowLight Snow
1:00 AM21.2 °F17.6 °F86 %29.87 in2.5 miNNW (340°)20.7 mph33.4 mph0.00 inSnowLight Snow
1:13 AM21.2 °F17.6 °F86 %29.88 in2.0 miNorth (350°)20.7 mph0.00 inSnowLight Snow
1:16 AM19.4 °F17.6 °F93 %29.88 in1.8 miNorth (350°)20.7 mph29.9 mph0.00 inSnowLight Snow
1:24 AM19.4 °F17.6 °F93 %29.88 in1.8 miNorth (350°)24.2 mph35.7 mph0.00 inSnowLight Snow
1:31 AM19.4 °F15.8 °F86 %29.89 in2.5 miNorth (350°)21.9 mph34.5 mph0.00 inSnowLight Snow
1:44 AM19.4 °F15.8 °F86 %29.89 in1.2 miNNW (340°)24.2 mph36.8 mph0.00 inSnowLight Snow
1:53 AM19.9 °F17.1 °F89 %29.99 in1.5 miNNW (330°)23.0 mph35.7 mph0.00 inSnowLight Snow
1:58 AM19.4 °F17.6 °F93 %29.89 in2.0 miNNW (340°)21.9 mph34.5 mph0.00 inSnowLight Snow
2:09 AM19.4 °F15.8 °F86 %29.90 in3.0 miNNW (330°)20.7 mph0.00 inSnowLight Snow
2:23 AM19.4 °F15.8 °F86 %29.91 in2.5 miNNW (330°)19.6 mph36.8 mph0.00 inSnowLight Snow
2:28 AM19.4 °F15.8 °F86 %29.91 in3.0 miNNW (330°)20.7 mph31.1 mph0.00 inSnowLight Snow
2:31 AM19.4 °F15.8 °F86 %29.91 in2.5 miNNW (330°)21.9 mph31.1 mph0.00 inSnowLight Snow
2:36 AM19.4 °F15.8 °F86 %29.91 in1.8 miNNW (330°)19.6 mph31.1 mph0.00 inSnowLight Snow
2:46 AM19.4 °F15.8 °F86 %29.91 in1.0 miNNW (330°)21.9 mph34.5 mph0.00 inSnowLight Snow
2:53 AM19.0 °F15.1 °F85 %30.02 in1.2 miNNW (330°)21.9 mph0.00 inSnowLight Snow
3:16 AM17.6 °F14.0 °F86 %29.92 in0.8 miNorth (350°)23.0 mph34.5 mph0.00 inSnowLight Snow
3:24 AM17.6 °F14.0 °F86 %29.93 in1.0 miNorth (350°)23.0 mph35.7 mph0.00 inSnowLight Snow
3:30 AM17.6 °F12.2 °F79 %29.93 in2.0 miNorth (350°)23.0 mph34.5 mph0.00 inSnowLight Snow
3:38 AM15.8 °F12.2 °F86 %29.94 in2.5 miNorth (350°)21.9 mph34.5 mph0.00 inSnowLight Snow
3:49 AM15.8 °F12.2 °F86 %29.94 in1.2 miNNW (340°)18.4 mph26.5 mph0.00 inSnowLight Snow
3:53 AM16.0 °F12.0 °F84 %30.07 in1.0 miNorth (350°)17.3 mph26.5 mph0.00 inSnowLight Snow
4:17 AM14.0 °F10.4 °F86 %29.97 in1.2 miNorth (360°)18.4 mph0.00 inSnowLight Snow
4:24 AM14.0 °F10.4 °F86 %29.97 in0.8 miNorth (360°)12.7 mph0.00 inSnowLight Snow
4:40 AM12.2 °F8.6 °F85 %29.98 in0.8 miNorth (10°)12.7 mph0.00 inSnowLight Snow
4:53 AM10.9 °F8.1 °F88 %30.14 in0.8 miNorth (10°)10.4 mph21.9 mph0.00 inSnowLight Snow
5:00 AM10.4 °F6.8 °F85 %30.00 in0.8 miNNE (20°)12.7 mph20.7 mph0.00 inSnowLight Snow
5:06 AM8.6 °F6.8 °F92 %30.00 in1.0 miNorth (10°)10.4 mph0.00 inMist
5:17 AM8.6 °F5.0 °F85 %30.00 in1.2 miNNE (20°)11.5 mph0.00 inOvercast
5:33 AM8.6 °F5.0 °F85 %30.01 in1.2 miNorth (350°)5.8 mph0.00 inOvercast
5:53 AM8.1 °F3.9 °F83 %30.18 in1.5 miNorth (10°)11.5 mph0.01 inOvercast
6:00 AM8.6 °F3.2 °F79 %30.02 in1.0 miNorth (360°)10.4 mphHaze
6:15 AM6.8 °F3.2 °F85 %30.02 in0.8 miNorth (350°)8.1 mphMist
6:32 AM6.8 °F3.2 °F85 %30.03 in1.2 miNorth (350°)4.6 mphOvercast
6:44 AM6.8 °F1.4 °F79 %30.04 in1.0 miNNE (20°)3.5 mph0.02 inMist
6:53 AM6.1 °F1.9 °F83 %30.23 in1.0 miNNE (20°)4.6 mph0.02 inSnowLight Snow
7:07 AM5.0 °F1.4 °F85 %30.05 in0.8 miNNE (20°)4.6 mph0.00 inSnowLight Snow
7:21 AM5.0 °F1.4 °F85 %30.05 in0.5 miCalm0.00 inFog-SnowSnow
7:53 AM5.0 °F1.0 °F84 %30.26 in0.5 miCalm0.04 inFog-SnowSnow
8:15 AM3.2 °F1.4 °F92 %30.07 in1.0 miCalm0.02 inSnowLight Snow
8:24 AM3.2 °F-0.4 °F85 %30.08 in1.2 miSSE (150°)4.6 mph0.02 inSnowLight Snow
8:36 AM3.2 °F-0.4 °F85 %30.08 in1.0 miSSE (150°)3.5 mph0.02 inSnowLight Snow
8:53 AM3.9 °F0.0 °F84 %30.28 in1.0 miSSE (150°)4.6 mph0.04 inSnowLight Snow
8:58 AM3.2 °F-0.4 °F85 %30.08 in1.5 miSSE (150°)6.9 mph0.00 inSnowLight Snow
9:06 AM3.2 °F-0.4 °F85 %30.08 in1.0 miSSE (150°)6.9 mph0.00 inSnowLight Snow
9:13 AM3.2 °F-0.4 °F85 %30.08 in1.0 miSSE (150°)6.9 mph0.00 inSnowLight Snow
9:31 AM3.2 °F-0.4 °F85 %30.08 in2.5 miSSE (150°)9.2 mph0.00 inOvercast
9:38 AM5.0 °F1.4 °F85 %30.08 in6.0 miSE (140°)8.1 mph0.00 inOvercast
9:53 AM5.0 °F1.0 °F84 %30.27 in6.0 miSE (140°)10.4 mph0.00 inOvercast
10:45 AM6.8 °F1.4 °F79 %30.08 in2.5 miSE (130°)4.6 mph0.00 inSnowLight Snow
10:53 AM7.0 °F3.0 °F84 %30.28 in2.5 miCalm0.00 inSnowLight Snow
11:02 AM8.6 °F3.2 °F79 %30.09 in3.0 miCalm0.00 inSnowLight Snow
11:05 AM8.6 °F3.2 °F79 %30.08 in1.8 miCalm0.00 inSnowLight Snow
11:14 AM8.6 °F5.0 °F85 %30.08 in1.0 miCalm0.00 inSnowLight Snow
11:30 AM8.6 °F5.0 °F85 %30.07 in5.0 miCalm0.00 inSnowLight Snow
11:38 AM8.6 °F5.0 °F85 %30.07 in9.0 miWSW (240°)3.5 mph0.00 inOvercast
11:53 AM10.0 °F5.0 °F80 %30.24 in4.0 miWest (270°)3.5 mph0.00 inSnowLight Snow
12:08 PM12.2 °F6.8 °F79 %30.05 in9.0 miCalm0.00 inOvercast
12:53 PM14.0 °F9.0 °F80 %30.21 in10.0 miCalm0.01 inOvercast
1:53 PM21.9 °F16.0 °F78 %30.18 in10.0 miSouth (180°)3.5 mph0.00 inOvercast
2:31 PM24.8 °F17.6 °F74 %30.04 in10.0 miWest (260°)4.6 mphOvercast
2:53 PM25.0 °F17.1 °F72 %30.17 in10.0 miVariable5.8 mphOvercast
3:44 PM24.8 °F15.8 °F69 %30.03 in10.0 miSSW (200°)10.4 mphOvercast
3:53 PM25.0 °F16.0 °F69 %30.17 in10.0 miSouth (190°)11.5 mphOvercast
4:53 PM24.1 °F17.1 °F75 %30.19 in10.0 miSE (130°)6.9 mphOvercast
5:53 PM25.0 °F17.1 °F72 %30.20 in10.0 miSouth (190°)6.9 mphOvercast
6:53 PM28.0 °F18.0 °F66 %30.20 in10.0 miSouth (190°)6.9 mphOvercast
7:53 PM28.0 °F18.0 °F66 %30.19 in10.0 miSouth (170°)6.9 mphOvercast
8:53 PM30.9 °F18.0 °F59 %30.17 in10.0 miVariable4.6 mphOvercast
9:53 PM30.9 °F19.9 °F64 %30.17 in10.0 miSW (220°)6.9 mphOvercast
11:53 PM34.0 °F21.9 °F61 %30.12 in10.0 miSSW (200°)10.4 mphOvercast
Hourly data recorded from KBYG, located miles away from Hazelton, Wyoming







STORIES FROM OUR PARTNERS